Location: San Antonio
(29.4240°N, 98.4930°W)
Time: 14:52:28
(UTC-05:00)

BlueWalker 3 - Pass Details

Date: 22 June 2024
Orbit: 480 x 492 km, 53.2° (Epoch: 11 July)

Event Time Altitude Azimuth Distance (km) Brightness Sun altitude
Rises 06:01:08 0° 300° (WNW) 2,532 5.2 -7.3°
Reaches altitude 10° 06:03:46 10° 281° (W) 1,651 4.1 -6.8°
Maximum altitude 06:06:22 18° 236° (SW) 1,230 3.3 -6.3°
Drops below altitude 10° 06:08:59 10° 191° (SSW) 1,649 4.2 -5.8°
Sets 06:11:37 0° 172° (S) 2,527 5.3 -5.3°
